Location: Tel Aviv
(32.0670°N, 34.7670°E)
Time: 12:32:09
(UTC+02:00)

SR - Visible Passes

Search period start: 19 January 2022 00:00
Search period end: 29 January 2022 00:00
Orbit: 582 x 872 km, 66.7° (Epoch: 18 January)

Date Brightness Start Highest point End Pass type
(mag) Time Alt. Az. Time Alt. Az. Time Alt. Az.
25 Jan ? 19:12:05 10° NNW 19:13:54 23° N 19:13:54 23° N visible
26 Jan ? 18:22:48 10° N 18:26:50 26° ENE 18:26:50 26° ENE visible
26 Jan ? 20:04:31 10° NW 20:06:21 20° WNW 20:06:21 20° WNW visible
27 Jan ? 17:34:34 10° NNE 17:36:43 13° NE 17:38:54 10° E visible
27 Jan ? 19:14:09 10° NNW 19:19:02 69° WSW 19:20:03 54° S visible
28 Jan ? 18:24:23 10° NNW 18:29:09 53° ENE 18:34:20 10° SE visible
28 Jan ? 20:08:04 10° WNW 20:10:50 15° WSW 20:13:41 10° SW visible
